Meteo Giornale » Osservazioni meteo Stati Uniti (USA) » Las Cruces
ore: 16:15 - Osservazioni Meteo Las Cruces
Lat. 32° 17' N Lon. 106° 55' W Alt. 1358 metri s.l.m.
35 °C
Sereno
Temp. 24 Ore
22 °C
37 °C
Sud-Ovest
9.3 Km/h
Dew point 5 °C
Umidità 15 %
Visibilità 10 Km
Il sole sorge alle ore 06:42
Il sole tramonta alle ore 19:33
| Data e Ora | Cielo e Fenomeni | T °C | DP °C | Um. % | Pres. hPa | Vis. km | Vento km/h | |
|---|---|---|---|---|---|---|---|---|
| Oggi h: 16:15 | Sereno | 35 | 5 | 15 | 1015 | 10 | SO 9.3 | |
| Oggi h: 15:55 | Sereno | 37 | 5 | 13 | 1016 | 10 | O/SO 11.1 | |
| Oggi h: 15:35 | Sereno | 37 | 6 | 14 | 1016 | 10 | E/SE 9.3 | |
| Oggi h: 15:15 | Sereno | 36 | 5 | 14 | 1017 | 10 | N 5.5 | |
| Oggi h: 14:55 | Nuvoloso | 36 | 7 | 16 | 1017 | 10 | N 0 | |
| Oggi h: 14:35 | Nuvoloso | 36 | 7 | 16 | 1017 | 10 | N/NO 7.4 | |
| Oggi h: 14:15 | Sereno | 35 | 7 | 17 | 1018 | 10 | N/NO 7.4 | |
| Oggi h: 13:55 | Sereno | 35 | 7 | 17 | 1018 | 10 | N 5.5 | |
| Oggi h: 13:35 | Sereno | 34 | 7 | 18 | 1018 | 10 | N 0 | |
| Oggi h: 13:15 | Sereno | 34 | 7 | 18 | 1018 | 10 | SO 9.3 | |
| Oggi h: 12:55 | Sereno | 34 | 7 | 18 | 1018 | 10 | O/SO 7.4 | |
| Oggi h: 12:35 | Sereno | 34 | 8 | 20 | 1019 | 10 | O/SO 9.3 | |
| Oggi h: 12:15 | Sereno | 34 | 8 | 20 | 1019 | 10 | NO 14.8 | |
| Oggi h: 11:55 | Sereno | 33 | 8 | 21 | 1019 | 10 | O/NO 13 | |
| Oggi h: 11:35 | Sereno | 33 | 9 | 22 | 1019 | 10 | N/NO 14.8 | |
| Oggi h: 11:15 | Sereno | 32 | 9 | 24 | 1019 | 10 | NO 13 | |
| Oggi h: 10:55 | Sereno | 31 | 9 | 25 | 1019 | 10 | N 5.5 | |
| Oggi h: 10:35 | Sereno | 31 | 10 | 27 | 1019 | 10 | E 7.4 | |
| Oggi h: 10:15 | Sereno | 30 | 10 | 28 | 1019 | 10 | N 5.5 | |
| Oggi h: 09:55 | Sereno | 30 | 8 | 25 | 1019 | 10 | N 14.8 | |
| Oggi h: 09:35 | Nuvoloso | 30 | 8 | 25 | 1019 | 10 | N/NO 14.8 | |
| Oggi h: 09:15 | Molto Nuvoloso | 29 | 9 | 28 | 1019 | 10 | N 16.7 | |
| Oggi h: 08:55 | Nuvoloso | 28 | 8 | 28 | 1019 | 10 | N 7.4 | |
| Oggi h: 08:35 | Sereno | 28 | 9 | 30 | 1019 | 10 | N 13 | |
| Oggi h: 08:15 | Sereno | 26 | 9 | 34 | 1019 | 10 | N 5.5 | |
| Oggi h: 07:55 | Sereno | 25 | 9 | 36 | 1018 | 10 | N 0 | |
| Oggi h: 07:35 | Sereno | 23 | 9 | 40 | 1018 | 10 | N 5.5 | |
| Oggi h: 07:15 | Sereno | 22 | 8 | 40 | 1018 | 10 | O 9.3 | |
| Oggi h: 06:55 | Sereno | 22 | 8 | 40 | 1018 | 10 | O 13 | |
| Oggi h: 06:35 | Sereno | 22 | 8 | 40 | 1017 | 10 | O 9.3 | |
| Oggi h: 05:55 | Sereno | 24 | 7 | 33 | 1017 | 10 | N/NO 9.3 | |
| Oggi h: 05:35 | Sereno | 24 | 7 | 33 | 1017 | 10 | N 5.5 | |
| Oggi h: 05:15 | Sereno | 24 | 8 | 35 | 1017 | 10 | O/NO 9.3 | |
| Oggi h: 04:55 | Sereno | 24 | 8 | 35 | 1018 | 10 | NO 11.1 | |
| Oggi h: 04:35 | Sereno | 24 | 7 | 33 | 1017 | 10 | O 9.3 | |
| Oggi h: 04:15 | Sereno | 25 | 7 | 31 | 1017 | 10 | O/NO 9.3 | |
| Oggi h: 03:55 | Nuvoloso | 24 | 7 | 33 | 1017 | 10 | O/NO 13 | |
| Oggi h: 03:35 | Nuvoloso | 25 | 7 | 31 | 1017 | 10 | O/NO 7.4 | |
| Oggi h: 03:15 | Nuvoloso | 25 | 7 | 31 | 1017 | 10 | NO 7.4 | |
| Oggi h: 02:55 | Sereno | 26 | 7 | 29 | 1017 | 10 | N/NO 7.4 | |
| Oggi h: 02:35 | Sereno | 27 | 8 | 30 | 1017 | 10 | N 11.1 | |
| Oggi h: 02:15 | Sereno | 26 | 7 | 29 | 1017 | 10 | N 11.1 | |
| Oggi h: 01:55 | Sereno | 28 | 7 | 26 | 1017 | 10 | N 11.1 | |
| Oggi h: 01:35 | Nuvoloso | 28 | 7 | 26 | 1017 | 10 | N 13 | |
| Oggi h: 01:15 | Molto Nuvoloso | 29 | 7 | 25 | 1017 | 10 | N 14.8 | |
| Oggi h: 00:55 | Coperto | 29 | 7 | 25 | 1017 | 10 | N/NE 18.5 | |
| Oggi h: 00:35 | Molto Nuvoloso | 28 | 7 | 26 | 1017 | 10 | N 11.1 | |
| Oggi h: 00:15 | Nuvoloso | 27 | 6 | 26 | 1017 | 10 | N/NO 11.1 | |
| Ieri h: 23:55 | Nuvoloso | 27 | 5 | 24 | 1017 | 10 | NO 13 | |
| Ieri h: 23:35 | Nuvoloso | 27 | 4 | 22 | 1017 | 10 | NO 9.3 | |
| Ieri h: 23:15 | Nuvoloso | 28 | 5 | 23 | 1017 | 10 | N/NO 9.3 | |
| Ieri h: 22:55 | Sereno | 28 | 5 | 23 | 1017 | 10 | O/NO 9.3 | |
| Ieri h: 22:35 | Sereno | 28 | 5 | 23 | 1017 | 10 | O 9.3 | |
| Ieri h: 22:15 | Sereno | 29 | 5 | 21 | 1017 | 10 | O 7.4 | |
| Ieri h: 21:55 | Sereno | 30 | 4 | 19 | 1017 | 10 | O/SO 9.3 | |
| Ieri h: 21:35 | Sereno | 30 | 4 | 19 | 1017 | 10 | S/SO 7.4 | |
| Ieri h: 21:15 | Sereno | 30 | 4 | 19 | 1016 | 10 | N 5.5 | |
| Ieri h: 20:55 | Sereno | 31 | 5 | 19 | 1016 | 10 | S 9.3 | |
| Ieri h: 20:35 | Sereno | 31 | 4 | 18 | 1016 | 10 | S 7.4 | |
| Ieri h: 20:15 | Sereno | 32 | 4 | 17 | 1016 | 10 | S 9.3 | |
| Ieri h: 19:55 | Sereno | 32 | 3 | 15 | 1016 | 10 | N 5.5 | |
| Ieri h: 19:35 | Sereno | 33 | 3 | 15 | 1015 | 10 | N 0 | |
| Ieri h: 19:15 | Sereno | 34 | 3 | 14 | 1015 | 10 | N 0 | |
| Ieri h: 18:55 | Sereno | 35 | 3 | 13 | 1015 | 10 | S/SE 9.3 | |
| Ieri h: 18:35 | Sereno | 36 | 3 | 12 | 1015 | 10 | S/SE 9.3 | |
| Ieri h: 18:15 | Sereno | 36 | 2 | 11 | 1016 | 10 | N 5.5 | |
| Ieri h: 17:55 | Sereno | 36 | 4 | 13 | 1015 | 10 | E/SE 7.4 | |
| Ieri h: 17:35 | Sereno | 36 | 3 | 12 | 1016 | 10 | E 11.1 | |
| Ieri h: 17:15 | Sereno | 36 | 3 | 12 | 1016 | 10 | E 9.3 | |
| Ieri h: 16:55 | Sereno | 37 | 4 | 12 | 1016 | 10 | SE 13 | |
| Ieri h: 16:35 | Sereno | 37 | 3 | 12 | 1016 | 10 | E 16.7 | |



